SJV951 WAHI-WIDD

Flight info

Callsign SJV951
Flight time 1h 37m
Altitude 35000
Route DOLTA
Aircraft A320/M-SDE3FGHIRWY/LB1

Departure

Time 2026-04-21 05:33
Airport Yogyakarta International Airport (WAHI)

Arrival

Time 2026-04-21 07:10
Airport Hang Nadim International Airport (WIDD)
Time Latitude Longitude Altitude Speed Heading
2026-04-21 05:19 -7.90002 110.05533 38 ft 0 kts 20°
2026-04-21 05:22 -7.90003 110.05533 38 ft 1 kts 20°
2026-04-21 05:23 -7.90025 110.05524 38 ft 4 kts 21°
2026-04-21 05:23 -7.90049 110.05515 38 ft 2 kts 22°
2026-04-21 05:23 -7.90070 110.05509 37 ft 4 kts 346°
2026-04-21 05:23 -7.90089 110.05523 38 ft 4 kts 296°
2026-04-21 05:24 -7.90094 110.05535 38 ft 0 kts 290°
2026-04-21 05:26 -7.90093 110.05533 38 ft 1 kts 290°
2026-04-21 05:27 -7.90089 110.05522 38 ft 3 kts 290°
2026-04-21 05:27 -7.90081 110.05500 35 ft 4 kts 290°
2026-04-21 05:27 -7.90069 110.05468 38 ft 6 kts 290°
2026-04-21 05:27 -7.90054 110.05427 38 ft 7 kts 290°
2026-04-21 05:28 -7.90035 110.05375 38 ft 9 kts 290°
2026-04-21 05:28 -7.90011 110.05312 36 ft 10 kts 291°
2026-04-21 05:28 -7.89982 110.05241 35 ft 12 kts 291°
2026-04-21 05:28 -7.89970 110.05162 35 ft 12 kts 240°
2026-04-21 05:29 -7.90048 110.05124 37 ft 14 kts 199°
2026-04-21 05:29 -7.90111 110.05077 36 ft 11 kts 260°
2026-04-21 05:29 -7.90086 110.05000 37 ft 12 kts 291°
2026-04-21 05:29 -7.90057 110.04919 38 ft 13 kts 290°
2026-04-21 05:30 -7.90025 110.04830 38 ft 14 kts 290°
2026-04-21 05:30 -7.89990 110.04733 39 ft 15 kts 290°
2026-04-21 05:30 -7.89953 110.04636 41 ft 15 kts 290°
2026-04-21 05:30 -7.89916 110.04533 41 ft 16 kts 290°
2026-04-21 05:31 -7.89874 110.04417 40 ft 13 kts 290°
2026-04-21 05:31 -7.89851 110.04336 39 ft 10 kts 261°
2026-04-21 05:31 -7.89910 110.04312 41 ft 10 kts 160°
2026-04-21 05:31 -7.89975 110.04344 40 ft 11 kts 154°
2026-04-21 05:32 -7.90024 110.04355 43 ft 4 kts 187°
2026-04-21 05:32 -7.90036 110.04370 43 ft 3 kts 117°
2026-04-21 05:32 -7.90067 110.04446 43 ft 37 kts 111°
2026-04-21 05:32 -7.90235 110.04907 38 ft 100 kts 110°
2026-04-21 05:33 -7.90533 110.05723 44 ft 145 kts 110°
2026-04-21 05:33 -7.90924 110.06792 200 ft 171 kts 111°
2026-04-21 05:33 -7.91342 110.07933 765 ft 174 kts 111°
2026-04-21 05:33 -7.91759 110.09075 1527 ft 173 kts 111°
2026-04-21 05:34 -7.92106 110.10244 2059 ft 180 kts 103°
2026-04-21 05:34 -7.92290 110.11568 2259 ft 202 kts 94°
2026-04-21 05:34 -7.92248 110.13074 2436 ft 228 kts 84°
2026-04-21 05:34 -7.91903 110.14710 2739 ft 251 kts 73°
2026-04-21 05:35 -7.91176 110.16360 3375 ft 262 kts 62°
2026-04-21 05:35 -7.90099 110.17856 4179 ft 267 kts 50°
2026-04-21 05:35 -7.89192 110.18735 4715 ft 270 kts 41°
2026-04-21 05:35 -7.87625 110.19773 5475 ft 276 kts 28°
2026-04-21 05:36 -7.85808 110.20451 6239 ft 282 kts 15°
2026-04-21 05:36 -7.83826 110.20699 7012 ft 287 kts
2026-04-21 05:36 -7.81849 110.20479 7732 ft 293 kts 348°
2026-04-21 05:36 -7.79922 110.19769 8437 ft 298 kts 334°
2026-04-21 05:37 -7.78182 110.18605 9131 ft 303 kts 323°
2026-04-21 05:37 -7.76519 110.17287 9824 ft 305 kts 323°
2026-04-21 05:37 -7.74823 110.15943 10247 ft 319 kts 323°
2026-04-21 05:37 -7.73022 110.14513 10385 ft 340 kts 323°
2026-04-21 05:38 -7.71112 110.13000 10540 ft 357 kts 323°
2026-04-21 05:38 -7.69135 110.11433 10956 ft 365 kts 323°
2026-04-21 05:38 -7.67130 110.09851 11498 ft 367 kts 323°
2026-04-21 05:38 -7.65082 110.08242 12069 ft 369 kts 324°
2026-04-21 05:39 -7.63077 110.06671 12621 ft 371 kts 324°
2026-04-21 05:39 -7.61033 110.05067 13157 ft 373 kts 323°
2026-04-21 05:39 -7.58974 110.03450 13663 ft 377 kts 323°
2026-04-21 05:39 -7.56896 110.01815 14172 ft 380 kts 323°
2026-04-21 05:40 -7.54806 110.00169 14684 ft 383 kts 323°
2026-04-21 05:40 -7.52697 109.98507 15197 ft 386 kts 323°
2026-04-21 05:40 -7.50573 109.96834 15695 ft 389 kts 323°
2026-04-21 05:40 -7.48434 109.95151 16160 ft 392 kts 324°
2026-04-21 05:41 -7.46278 109.93459 16628 ft 394 kts 324°
2026-04-21 05:41 -7.44110 109.91757 17095 ft 396 kts 324°
2026-04-21 05:41 -7.41930 109.90043 17523 ft 399 kts 323°
2026-04-21 05:41 -7.39737 109.88313 17948 ft 402 kts 323°
2026-04-21 05:42 -7.37529 109.86569 18380 ft 404 kts 323°
2026-04-21 05:42 -7.35307 109.84818 18816 ft 407 kts 323°
2026-04-21 05:42 -7.33070 109.83061 19256 ft 409 kts 323°
2026-04-21 05:42 -7.30819 109.81299 19666 ft 411 kts 323°
2026-04-21 05:43 -7.28563 109.79531 20062 ft 413 kts 323°
2026-04-21 05:43 -7.26289 109.77750 20459 ft 415 kts 323°
2026-04-21 05:43 -7.24002 109.75962 20845 ft 417 kts 323°
2026-04-21 05:43 -7.21702 109.74167 21223 ft 419 kts 323°
2026-04-21 05:44 -7.19390 109.72364 21596 ft 421 kts 323°
2026-04-21 05:44 -7.17069 109.70554 21963 ft 423 kts 323°
2026-04-21 05:44 -7.14740 109.68735 22299 ft 425 kts 322°
2026-04-21 05:44 -7.12400 109.66908 22628 ft 427 kts 322°
2026-04-21 05:45 -7.10052 109.65070 22946 ft 428 kts 322°
2026-04-21 05:45 -7.07697 109.63224 23248 ft 430 kts 322°
2026-04-21 05:45 -7.05331 109.61372 23562 ft 432 kts 322°
2026-04-21 05:45 -7.02962 109.59516 23856 ft 433 kts 322°
2026-04-21 05:46 -7.00579 109.57646 24143 ft 435 kts 322°
2026-04-21 05:46 -6.98188 109.55768 24419 ft 437 kts 322°
2026-04-21 05:46 -6.95786 109.53882 24692 ft 439 kts 322°
2026-04-21 05:46 -6.93374 109.51993 24975 ft 440 kts 322°
2026-04-21 05:47 -6.90953 109.50100 25244 ft 441 kts 322°
2026-04-21 05:47 -6.88526 109.48193 25511 ft 443 kts 322°
2026-04-21 05:47 -6.86089 109.46278 25772 ft 445 kts 322°
2026-04-21 05:47 -6.83645 109.44357 26031 ft 446 kts 322°
2026-04-21 05:48 -6.81198 109.42437 26292 ft 448 kts 322°
2026-04-21 05:48 -6.78737 109.40509 26540 ft 449 kts 322°
2026-04-21 05:48 -6.76267 109.38574 26779 ft 451 kts 322°
2026-04-21 05:48 -6.73789 109.36633 27013 ft 452 kts 322°
2026-04-21 05:49 -6.71303 109.34686 27251 ft 454 kts 322°
2026-04-21 05:49 -6.68809 109.32730 27463 ft 455 kts 322°
2026-04-21 05:49 -6.66310 109.30770 27693 ft 457 kts 322°
2026-04-21 05:49 -6.63795 109.28797 27936 ft 458 kts 322°
2026-04-21 05:50 -6.61292 109.26837 28286 ft 456 kts 322°
2026-04-21 05:50 -6.58786 109.24877 28620 ft 455 kts 322°
2026-04-21 05:50 -6.56289 109.22926 28973 ft 454 kts 322°
2026-04-21 05:50 -6.53794 109.20977 29287 ft 454 kts 322°
2026-04-21 05:51 -6.51304 109.19030 29640 ft 453 kts 322°
2026-04-21 05:51 -6.48827 109.17092 29991 ft 451 kts 322°
2026-04-21 05:51 -6.46349 109.15152 30320 ft 450 kts 322°
2026-04-21 05:51 -6.43880 109.13220 30654 ft 450 kts 322°
2026-04-21 05:52 -6.41413 109.11290 30991 ft 449 kts 322°
2026-04-21 05:52 -6.38955 109.09364 31324 ft 448 kts 322°
2026-04-21 05:52 -6.36495 109.07436 31657 ft 447 kts 322°
2026-04-21 05:52 -6.34045 109.05516 32001 ft 447 kts 322°
2026-04-21 05:53 -6.31602 109.03599 32316 ft 446 kts 322°
2026-04-21 05:53 -6.29158 109.01680 32639 ft 446 kts 322°
2026-04-21 05:53 -6.26713 108.99763 32959 ft 445 kts 322°
2026-04-21 05:53 -6.24274 108.97855 33285 ft 444 kts 322°
2026-04-21 05:54 -6.21838 108.95950 33590 ft 443 kts 322°
2026-04-21 05:54 -6.19407 108.94051 33900 ft 443 kts 322°
2026-04-21 05:54 -6.16979 108.92153 34198 ft 442 kts 322°
2026-04-21 05:54 -6.14556 108.90259 34486 ft 441 kts 322°
2026-04-21 05:55 -6.12137 108.88364 34743 ft 441 kts 322°
2026-04-21 05:55 -6.09717 108.86468 34810 ft 444 kts 322°
2026-04-21 05:55 -6.04778 108.82622 34831 ft 454 kts 322°
2026-04-21 05:56 -5.99756 108.78738 34830 ft 457 kts 322°
2026-04-21 05:56 -5.94731 108.74813 34833 ft 457 kts 322°
2026-04-21 05:57 -5.89718 108.70885 34831 ft 457 kts 322°
2026-04-21 05:57 -5.84726 108.66983 34836 ft 457 kts 322°
2026-04-21 05:58 -5.79700 108.63060 34838 ft 458 kts 322°
2026-04-21 05:58 -5.74670 108.59139 34844 ft 458 kts 322°
2026-04-21 05:59 -5.69640 108.55208 34846 ft 458 kts 322°
2026-04-21 06:00 -5.62098 108.49326 34843 ft 458 kts 322°
2026-04-21 06:00 -5.57072 108.45414 34843 ft 458 kts 322°
2026-04-21 06:01 -5.52034 108.41486 34843 ft 458 kts 322°
2026-04-21 06:01 -5.47011 108.37556 34844 ft 457 kts 322°
2026-04-21 06:02 -5.41991 108.33635 34844 ft 458 kts 322°
2026-04-21 06:02 -5.36949 108.29724 34839 ft 458 kts 322°
2026-04-21 06:03 -5.31897 108.25825 34837 ft 459 kts 322°
2026-04-21 06:03 -5.26854 108.21901 34842 ft 459 kts 322°
2026-04-21 06:04 -5.21818 108.17970 34847 ft 459 kts 322°
2026-04-21 06:04 -5.16771 108.14031 34847 ft 459 kts 322°
2026-04-21 06:05 -5.11734 108.10107 34846 ft 459 kts 322°
2026-04-21 06:05 -5.06687 108.06190 34848 ft 459 kts 322°
2026-04-21 06:06 -5.01633 108.02249 34847 ft 459 kts 322°
2026-04-21 06:06 -4.96589 107.98320 34845 ft 459 kts 322°
2026-04-21 06:07 -4.91523 107.94417 34844 ft 460 kts 322°
2026-04-21 06:07 -4.86449 107.90501 34847 ft 460 kts 322°
2026-04-21 06:08 -4.81393 107.86568 34852 ft 460 kts 322°
2026-04-21 06:08 -4.76342 107.82628 34850 ft 460 kts 322°
2026-04-21 06:09 -4.71277 107.78687 34852 ft 461 kts 322°
2026-04-21 06:09 -4.66215 107.74752 34853 ft 461 kts 322°
2026-04-21 06:10 -4.61151 107.70817 34854 ft 461 kts 322°
2026-04-21 06:10 -4.56083 107.66880 34853 ft 461 kts 322°
2026-04-21 06:11 -4.51023 107.62940 34853 ft 461 kts 322°
2026-04-21 06:11 -4.45961 107.59001 34857 ft 461 kts 322°
2026-04-21 06:12 -4.40892 107.55073 34856 ft 461 kts 322°
2026-04-21 06:12 -4.35824 107.51144 34856 ft 460 kts 322°
2026-04-21 06:13 -4.30763 107.47212 34855 ft 460 kts 322°
2026-04-21 06:13 -4.25709 107.43280 34855 ft 460 kts 322°
2026-04-21 06:14 -4.20652 107.39350 34854 ft 460 kts 322°
2026-04-21 06:14 -4.15595 107.35428 34853 ft 460 kts 322°
2026-04-21 06:15 -4.10532 107.31500 34852 ft 460 kts 322°
2026-04-21 06:15 -4.05501 107.27595 34854 ft 460 kts 322°
2026-04-21 06:16 -4.00439 107.23662 34852 ft 460 kts 322°
2026-04-21 06:16 -3.95382 107.19736 34855 ft 460 kts 322°
2026-04-21 06:17 -3.90319 107.15807 34854 ft 460 kts 322°
2026-04-21 06:17 -3.85255 107.11884 34855 ft 460 kts 322°
2026-04-21 06:18 -3.80183 107.07957 34858 ft 461 kts 322°
2026-04-21 06:18 -3.75934 107.04671 34856 ft 460 kts 322°
2026-04-21 06:19 -3.70919 107.00781 34861 ft 460 kts 322°
2026-04-21 06:19 -3.65875 106.96842 34861 ft 459 kts 322°
2026-04-21 06:20 -3.60825 106.92930 34852 ft 459 kts 322°
2026-04-21 06:20 -3.55764 106.89023 34844 ft 459 kts 322°
2026-04-21 06:21 -3.50715 106.85107 34839 ft 459 kts 322°
2026-04-21 06:21 -3.45664 106.81188 34843 ft 459 kts 322°
2026-04-21 06:22 -3.40606 106.77276 34844 ft 459 kts 322°
2026-04-21 06:22 -3.35546 106.73367 34847 ft 460 kts 322°
2026-04-21 06:23 -3.30484 106.69451 34849 ft 460 kts 322°
2026-04-21 06:23 -3.25424 106.65522 34852 ft 460 kts 322°
2026-04-21 06:24 -3.20376 106.61595 34851 ft 460 kts 322°
2026-04-21 06:24 -3.15323 106.57669 34847 ft 460 kts 322°
2026-04-21 06:25 -3.10260 106.53758 34845 ft 460 kts 322°
2026-04-21 06:25 -3.05197 106.49847 34843 ft 460 kts 322°
2026-04-21 06:26 -3.00137 106.45929 34843 ft 460 kts 322°
2026-04-21 06:26 -2.95078 106.42012 34840 ft 460 kts 322°
2026-04-21 06:27 -2.90020 106.38106 34838 ft 460 kts 322°
2026-04-21 06:27 -2.84958 106.34197 34837 ft 459 kts 322°
2026-04-21 06:28 -2.79900 106.30280 34842 ft 460 kts 322°
2026-04-21 06:28 -2.74841 106.26363 34844 ft 460 kts 322°
2026-04-21 06:29 -2.69778 106.22450 34846 ft 460 kts 322°
2026-04-21 06:29 -2.64721 106.18536 34847 ft 459 kts 322°
2026-04-21 06:30 -2.59676 106.14623 34849 ft 459 kts 322°
2026-04-21 06:30 -2.54623 106.10711 34849 ft 459 kts 322°
2026-04-21 06:31 -2.49562 106.06809 34850 ft 459 kts 322°
2026-04-21 06:31 -2.44506 106.02896 34850 ft 459 kts 322°
2026-04-21 06:32 -2.39461 105.98980 34852 ft 459 kts 322°
2026-04-21 06:32 -2.34416 105.95072 34850 ft 458 kts 322°
2026-04-21 06:33 -2.29377 105.91198 34837 ft 451 kts 322°
2026-04-21 06:33 -2.24436 105.87442 34842 ft 444 kts 322°
2026-04-21 06:34 -2.19513 105.83668 34842 ft 451 kts 321°
2026-04-21 06:34 -2.14536 105.79760 34841 ft 457 kts 321°
2026-04-21 06:35 -2.09518 105.75856 34841 ft 458 kts 322°
2026-04-21 06:35 -2.04460 105.71991 34840 ft 458 kts 322°
2026-04-21 06:36 -1.99404 105.68124 34842 ft 458 kts 322°
2026-04-21 06:36 -1.94362 105.64239 34842 ft 457 kts 322°
2026-04-21 06:37 -1.89332 105.60341 34838 ft 458 kts 322°
2026-04-21 06:37 -1.84295 105.56439 34839 ft 458 kts 322°
2026-04-21 06:38 -1.79256 105.52530 34841 ft 459 kts 321°
2026-04-21 06:38 -1.74229 105.48612 34848 ft 459 kts 322°
2026-04-21 06:39 -1.69183 105.44709 34852 ft 458 kts 322°
2026-04-21 06:39 -1.64169 105.40841 34853 ft 458 kts 322°
2026-04-21 06:40 -1.59119 105.36946 34856 ft 459 kts 322°
2026-04-21 06:40 -1.54063 105.33049 34861 ft 459 kts 322°
2026-04-21 06:41 -1.49014 105.29152 34862 ft 459 kts 322°
2026-04-21 06:41 -1.43967 105.25254 34861 ft 459 kts 322°
2026-04-21 06:42 -1.38912 105.21359 34861 ft 459 kts 322°
2026-04-21 06:42 -1.33856 105.17465 34863 ft 459 kts 322°
2026-04-21 06:43 -1.28808 105.13566 34863 ft 459 kts 322°
2026-04-21 06:43 -1.23757 105.09674 34863 ft 459 kts 322°
2026-04-21 06:44 -1.18701 105.05781 34865 ft 459 kts 322°
2026-04-21 06:44 -1.13651 105.01882 34870 ft 458 kts 322°
2026-04-21 06:45 -1.08604 104.97983 34870 ft 458 kts 322°
2026-04-21 06:45 -1.03556 104.94089 34874 ft 459 kts 322°
2026-04-21 06:46 -0.98503 104.90200 34872 ft 458 kts 322°
2026-04-21 06:46 -0.93456 104.86311 34869 ft 458 kts 322°
2026-04-21 06:47 -0.88415 104.82423 34867 ft 458 kts 322°
2026-04-21 06:47 -0.83372 104.78534 34869 ft 458 kts 322°
2026-04-21 06:48 -0.78320 104.74634 34874 ft 459 kts 322°
2026-04-21 06:48 -0.73266 104.70734 34880 ft 459 kts 322°
2026-04-21 06:49 -0.68220 104.66840 34882 ft 459 kts 322°
2026-04-21 06:49 -0.63166 104.62939 34879 ft 459 kts 322°
2026-04-21 06:50 -0.58109 104.59043 34876 ft 459 kts 322°
2026-04-21 06:50 -0.53042 104.55140 33761 ft 465 kts 322°
2026-04-21 06:50 -0.50458 104.53151 32856 ft 471 kts 322°
2026-04-21 06:51 -0.47855 104.51145 31987 ft 474 kts 322°
2026-04-21 06:51 -0.45235 104.49122 31094 ft 478 kts 322°
2026-04-21 06:51 -0.42627 104.47104 30613 ft 471 kts 322°
2026-04-21 06:51 -0.40046 104.45107 30029 ft 467 kts 322°
2026-04-21 06:52 -0.37488 104.43128 29441 ft 463 kts 322°
2026-04-21 06:52 -0.34953 104.41172 28866 ft 458 kts 322°
2026-04-21 06:52 -0.32448 104.39246 28293 ft 452 kts 322°
2026-04-21 06:52 -0.29972 104.37344 27723 ft 446 kts 323°
2026-04-21 06:53 -0.27527 104.35465 27166 ft 442 kts 322°
2026-04-21 06:53 -0.25093 104.33607 26616 ft 438 kts 325°
2026-04-21 06:53 -0.22482 104.32081 26068 ft 433 kts 336°
2026-04-21 06:53 -0.19667 104.31072 25520 ft 428 kts 346°
2026-04-21 06:54 -0.16768 104.30494 24990 ft 423 kts 349°
2026-04-21 06:54 -0.13891 104.29949 24464 ft 419 kts 349°
2026-04-21 06:54 -0.11042 104.29398 23968 ft 416 kts 349°
2026-04-21 06:54 -0.08217 104.28846 23472 ft 412 kts 349°
2026-04-21 06:55 -0.05423 104.28302 22995 ft 406 kts 349°
2026-04-21 06:55 -0.02659 104.27766 22520 ft 402 kts 349°
2026-04-21 06:55 0.00080 104.27234 22053 ft 400 kts 349°
2026-04-21 06:55 0.02799 104.26709 21582 ft 396 kts 349°
2026-04-21 06:56 0.05492 104.26194 21106 ft 393 kts 349°
2026-04-21 06:56 0.08166 104.25684 20629 ft 390 kts 349°
2026-04-21 06:56 0.10818 104.25178 20155 ft 387 kts 349°
2026-04-21 06:56 0.13417 104.24674 19668 ft 384 kts 349°
2026-04-21 06:57 0.16065 104.24159 19172 ft 381 kts 349°
2026-04-21 06:57 0.18625 104.23667 18677 ft 378 kts 350°
2026-04-21 06:57 0.21233 104.23164 18172 ft 375 kts 349°
2026-04-21 06:57 0.23783 104.22673 17670 ft 373 kts 350°
2026-04-21 06:58 0.26325 104.22186 17169 ft 371 kts 349°
2026-04-21 06:58 0.28854 104.21700 16667 ft 369 kts 349°
2026-04-21 06:58 0.31368 104.21216 16163 ft 367 kts 349°
2026-04-21 06:58 0.33868 104.20733 15661 ft 365 kts 349°
2026-04-21 06:59 0.36351 104.20248 15162 ft 362 kts 349°
2026-04-21 06:59 0.38817 104.19766 14666 ft 360 kts 349°
2026-04-21 06:59 0.40438 104.19450 14333 ft 358 kts 349°
2026-04-21 06:59 0.43704 104.18818 13669 ft 355 kts 349°
2026-04-21 07:00 0.45305 104.18509 13342 ft 354 kts 349°
2026-04-21 07:00 0.47717 104.18047 12851 ft 352 kts 349°
2026-04-21 07:00 0.50116 104.17586 12361 ft 350 kts 349°
2026-04-21 07:00 0.53271 104.16979 11709 ft 347 kts 349°
2026-04-21 07:01 0.54868 104.16672 11389 ft 346 kts 349°
2026-04-21 07:01 0.57228 104.16221 10904 ft 345 kts 349°
2026-04-21 07:01 0.61876 104.15350 10318 ft 330 kts 349°
2026-04-21 07:02 0.64098 104.14933 10189 ft 319 kts 349°
2026-04-21 07:02 0.66247 104.14530 10064 ft 309 kts 349°
2026-04-21 07:02 0.68334 104.14137 9856 ft 302 kts 349°
2026-04-21 07:02 0.70399 104.13753 9475 ft 302 kts 349°
2026-04-21 07:03 0.72459 104.13388 9092 ft 301 kts 349°
2026-04-21 07:03 0.74520 104.13035 8770 ft 297 kts 349°
2026-04-21 07:03 0.76545 104.12689 8163 ft 294 kts 349°
2026-04-21 07:03 0.78503 104.12136 7625 ft 292 kts 335°
2026-04-21 07:04 0.80248 104.11124 7123 ft 290 kts 325°
2026-04-21 07:04 0.81901 104.10006 6635 ft 287 kts 326°
2026-04-21 07:04 0.83550 104.08898 6197 ft 284 kts 326°
2026-04-21 07:04 0.85189 104.07799 5768 ft 283 kts 326°
2026-04-21 07:05 0.86816 104.06709 5280 ft 281 kts 326°
2026-04-21 07:05 0.88425 104.05630 4865 ft 277 kts 326°
2026-04-21 07:05 0.90022 104.04559 4440 ft 274 kts 326°
2026-04-21 07:05 0.91607 104.03495 3971 ft 273 kts 326°
2026-04-21 07:06 0.93158 104.02453 3830 ft 264 kts 326°
2026-04-21 07:06 0.94669 104.01456 3628 ft 258 kts 331°
2026-04-21 07:06 0.96336 104.00841 3384 ft 252 kts 350°
2026-04-21 07:06 0.98038 104.00779 3184 ft 240 kts
2026-04-21 07:07 0.99619 104.01208 2942 ft 235 kts 24°
2026-04-21 07:07 1.00990 104.02080 2659 ft 234 kts 40°
2026-04-21 07:07 1.02195 104.03145 2355 ft 226 kts 40°
2026-04-21 07:07 1.03344 104.04159 2067 ft 216 kts 41°
2026-04-21 07:08 1.04453 104.05138 1782 ft 209 kts 41°
2026-04-21 07:08 1.05520 104.06079 1521 ft 199 kts 41°
2026-04-21 07:08 1.06523 104.06963 1265 ft 186 kts 42°
2026-04-21 07:08 1.07451 104.07781 1040 ft 168 kts 42°
2026-04-21 07:09 1.08291 104.08522 805 ft 156 kts 42°
2026-04-21 07:09 1.09090 104.09227 598 ft 152 kts 42°
2026-04-21 07:09 1.09874 104.09918 402 ft 150 kts 42°
2026-04-21 07:09 1.10656 104.10605 249 ft 149 kts 41°
2026-04-21 07:10 1.11426 104.11288 141 ft 141 kts 43°
2026-04-21 07:10 1.12047 104.11842 136 ft 95 kts 40°
2026-04-21 07:10 1.12419 104.12164 137 ft 46 kts 40°
2026-04-21 07:10 1.12523 104.12233 136 ft 7 kts 359°
2026-04-21 07:11 1.12577 104.12224 136 ft 8 kts
2026-04-21 07:11 1.12639 104.12236 136 ft 10 kts 13°
2026-04-21 07:11 1.12701 104.12243 136 ft 8 kts 340°
2026-04-21 07:11 1.12706 104.12199 136 ft 8 kts 234°
2026-04-21 07:12 1.12665 104.12162 137 ft 8 kts 223°
2026-04-21 07:12 1.12620 104.12121 137 ft 9 kts 223°
2026-04-21 07:12 1.12570 104.12076 137 ft 10 kts 221°
2026-04-21 07:12 1.12514 104.12027 137 ft 11 kts 221°
2026-04-21 07:13 1.12451 104.11973 137 ft 12 kts 221°
2026-04-21 07:13 1.12383 104.11914 138 ft 13 kts 221°
2026-04-21 07:13 1.12328 104.11864 138 ft 6 kts 225°
2026-04-21 07:13 1.12332 104.11825 137 ft 7 kts 302°
2026-04-21 07:14 1.12349 104.11783 137 ft 7 kts 255°
2026-04-21 07:14 1.12312 104.11751 137 ft 8 kts 218°
2026-04-21 07:14 1.12285 104.11728 137 ft 1 kts 222°
2026-04-21 07:14 1.12275 104.11720 137 ft 2 kts 222°
2026-04-21 07:15 1.12267 104.11704 137 ft 3 kts 264°
2026-04-21 07:15 1.12278 104.11685 137 ft 4 kts 308°
2026-04-21 07:15 1.12296 104.11665 137 ft 4 kts 311°
2026-04-21 07:15 1.12309 104.11651 137 ft 2 kts 311°
2026-04-21 07:16 1.12312 104.11648 137 ft 0 kts 311°